User: anonymous   Login
Location: Igon
(43.1667°N, 0.2333°W)
Time: 16:28:41
(UTC+00:00)
Language:

Cosmos 1408 Rocket - Orbit

View from above orbital plane
View from above orbital plane
View from above satellite
View from above satellite

Ground track
Ground track

The orbit data is extracted from the following two-line orbital elements,

1 13553U 82092B   21058.94752694  .00000088  00000-0  76433-5 0  9994
2 13553  82.5669  54.5232 0019813 256.5384 131.9143 14.84262516 56463
Epoch (UTC): 27 February 2021 22:44:26
Eccentricity: 0.0019813
inclination: 82.5669°
perigee height: 602 km
apogee height: 630 km
right ascension of ascending node: 54.5232°
argument of perigee: 256.5384°
revolutions per day: 14.84262516
mean anomaly at epoch: 131.9143°
orbit number at epoch: 5646

The dashed part of the orbit path shows where the satellite is in the earth's shadow,  

DLR